FENGYUN 1C DEB

Satellite information

Favourite Embed

Satellite Type and Status

DEBRISIN ORBIT

Key statistics

Satellite FENGYUN 1C DEB at a glance.

Uptime

9668

Days in orbit

Revolutions

≈ 13.6

Per day

Orbit

SSO

Sun Synchronous Orbit

Inclination

98.4

Latest

Satellite identification and parameters

Extended collection of information and parameters for FENGYUN 1C DEB.

Object identification

Identified? True

Debris? True

Object name: FENGYUN 1C DEB

International designator: 1999-025DXN

Object number (NORAD): 36644

Object ID (CCSDS): 36644

Country: PEOPLES REPUBLIC OF CHINA (PRC)

Current information (Y/N): Y

RCS size: SMALL

Orbital parameters

Period: 105.96 minutes

Inclination: 98.4195 deg

SMA: 7417.431 km

Apoapsis: 1250.458 km

Periapsis: 828.135 km

RAAN: 84.1007 deg

Eccentricy: 0.02846824

Argument of periapsis: 305.8344 deg

Mean anomaly: 51.6655 deg

Mean motion: 13.59009361 rev/day

Mean motion (dot): 0.00001332 rev/day2

B* drag term: 0.0014300967 1/REarth

Two-line elements (TLE)

Creation date: Oct. 26, 2025, 2:54 a.m.

Reference frame: TEME

Reference center: EARTH

Epoch: Oct. 25, 2025, 8:21 p.m. UTC

TLE line 0: 0 FENGYUN 1C DEB

TLE line 1: 1 36644U 99025DXN 25298.84843670 .00001332 00000-0 14301-2 0 9994

TLE line 2: 2 36644 98.4195 84.1007 0284682 305.8344 51.6655 13.59009361609176

Live tracking on map

Real-time ground track for satellite FENGYUN 1C DEB.

In-orbit conjunctions

A list of the most updated potential collisions computed for object FENGYUN 1C DEB.

Target Orbit TCA Probability of collision Miss distance Type
SL-14 DEB LEO 2024-11-14 17:38:54 0.0001290754 730.0 (m) DEBRIS
SL-8 R/B LEO 2024-08-14 19:33:24 0.0002526303 163.0 (m) ROCKET BODY
COSMOS 2034 LEO 2024-07-06 15:46:21 0.0002849212 720.0 (m) PAYLOAD

Associated space launch

Chinese polar orbiting meteorological satellite

FENGYUN 1C DEB was lifted into orbit during the mission ‘Long March 4B | Feng Yun 1C’, on board a Long March 4B space rocket.

The launch took place on May 10, 1999, 1:33 a.m. from Launch Complex 7.

For more information about the launch, click the button.

Launch to space Long March 4B | Feng Yun 1C
Long March 4B | Feng Yun 1C

Agency: N/A

Status: Launch Successful

Launch date: May 10, 1999, 1:33 a.m. UTC

Rocket: Long March 4B

Launch pad: Launch Complex 7

Location: Taiyuan Satellite Launch Center, People's Republic of China

...

Latest news about this satellite

There are no fresh news available about this satellite. Check back as we update our databases every day.


Newsletter sign-up

Weekly statistics, charts and insights to help you stay on top of the space industry.